Location: Newark
(43.6583°N, 1.6617°E)
Time: 13:59:51
(UTC+00:00)

Courier 1B - Pass Details

Date: 26 August 2019
Orbit: 962 x 1209 km, 28.3° (Epoch: 19 September)

Event Time Altitude Azimuth Distance (km) Brightness Sun altitude
Rises 15:35:48 0° 219° (SW) 3,915 11.4 32.1°
Reaches altitude 10° 15:39:51 10° 199° (SSW) 2,905 10.6 31.4°
Maximum altitude 15:43:50 16° 165° (SSE) 2,448 9.8 30.7°
Drops below altitude 10° 15:47:41 10° 130° (SE) 2,806 9.7 30.0°
Sets 15:51:29 0° 109° (ESE) 3,715 10.1 29.3°
